Location: Lachepaillet
(43.4918°N, 1.4874°W)
Time: 23:26:56
(UTC+00:00)

Cosmos 1634 Rocket - Pass Details

Date: 15 May 2026
Orbit: 960 x 990 km, 82.9° (Epoch: 6 June)

Event Time Altitude Azimuth Distance (km) Brightness Sun altitude
Exits shadow 22:22:33 49° 138° (SE) 1,227 4.1 -23.4°
Maximum altitude 22:23:52 59° 93° (E) 1,103 4.1 -23.5°
Drops below altitude 10° 22:29:57 10° 15° (NNE) 2,716 7.0 -24.0°
Sets 22:32:30 0° 12° (NNE) 3,671 7.9 -24.2°
